Tracking 17556 objects as of 5-February-2016
HD Live streaming from Space Station
objects crossing your sky now

COSMOS 252 DEB

Track COSMOS 252 DEB now!
10-day predictions


NORAD ID: 3559
Int'l Code: 1968-097M
Perigee: 516.2 km
Apogee: 1,355.4 km
Inclination: 62.3 °
Period: 103.6 minutes
Semi major axis: 7306 km
RCS: 0.1149 m2 (medium)
Launch date: November 1, 1968
Source: Commonwealth of Independent States (former USSR) (CIS)
Launch site: TYURATAM MISSILE AND SPACE COMPLEX (TTMTR)

Note: This is SATELLITE DEBRIS
Your satellite tracking list
Your tracking list is empty





NASA's NSSDC Master Catalog

Two Line Element Set (TLE):
1 03559U 68097M   16035.74706164  .00001939  00000-0  43078-3 0  9999
2 03559  62.2940 271.1676 0574237  29.7102 333.5282 13.9137347314873
Source of the keplerian elements: AFSPC

N2YO: 310